Location: Boulin
(43.2500°N, 0.1333°E)
Time: 16:45:21
(UTC+00:00)

Cosmos 1980 Rocket - Pass Details

Date: 11 December 2025
Orbit: 830 x 847 km, 71.0° (Epoch: 22 January)

Event Time Altitude Azimuth Distance (km) Brightness Sun altitude
Rises 18:08:02 0° 202° (SSW) 3,386 5.9 -18.2°
Reaches altitude 10° 18:10:28 10° 202° (SSW) 2,453 5.1 -18.6°
Maximum altitude 18:16:07 88° 113° (ESE) 846 2.1 -19.6°
Enters shadow 18:19:47 23° 25° (NNE) 1,727 3.5 -20.3°
